Tracking 23758 objects as of 28-Oct-2021
HD Live streaming from Space Station
objects crossing your sky now

CE-SAT IIB

Track CE-SAT IIB now!
10-day predictions


NORAD ID: 46818
Int'l Code: 2020-077F
Perigee: 510.5 km
Apogee: 531.9 km
Inclination: 97.5 °
Period: 94.9 minutes
Semi major axis: 6892 km
RCS: Unknown
Launch date: October 28, 2020
Source: Japan (JPN)
Launch site: Rocket Lab Launch Complex (RLLC)
aabbcc
Your satellite tracking list
Your tracking list is empty




NASA's NSSDC Master Catalog

Two Line Element Set (TLE):
1 46818U 20077F   21300.83092896  .00001397  00000-0  73353-4 0  9999
2 46818  97.4528   2.3059 0015491 119.2109 241.0676 15.17276627 55174
Source of the keplerian elements: AFSPC